User: anonymous   Login
Location: Poprad
(49.0500°N, 20.3000°E)
Time: 10:32:15
(UTC+02:00)
Language:

Cosmos 1515 Rocket - Orbit

View from above orbital plane
View from above orbital plane
View from above satellite
View from above satellite

Ground track
Ground track

The orbit data is extracted from the following two-line orbital elements,

1 14552U 83122B   24205.94135633  .00001246  00000-0  14400-3 0  9995
2 14552  82.5246 167.3324 0015373 240.5833 119.3849 14.84737590172694
Epoch (UTC): 23 July 2024 22:35:33
Eccentricity: 0.0015373
inclination: 82.5246°
perigee height: 603 km
apogee height: 625 km
right ascension of ascending node: 167.3324°
argument of perigee: 240.5833°
revolutions per day: 14.84737590
mean anomaly at epoch: 119.3849°
orbit number at epoch: 17269

The dashed part of the orbit path shows where the satellite is in the earth's shadow,  

DLR